Showing default

COSMOS 2501 (GLONASS), 40315

Orbit data source: Space-Track

COSMOS 2501 (GLONASS), 40315 is a Commonwealth of Independent States-origin payload satellite in MEO that was launched on Sun, 30 Nov 2014 UTC via a SOYUZ-2-1B launch vehicle from the Plesetsk Missile And Space Complex (PKMTR). Payload-class satellites include a variety of spacecraft equipped with specific instruments for various scientific and technological missions. These include communications satellites like Starlink; space stations such as the ISS; scientific satellites like the Hubble; Earth observation satellites from companies like Planet Labs, Umbra, and HawkEye 360; GPS; miniature CubeSats for education and research; and military/defense satellites.

Loading next visibility...
Identifier
40315, 2014-075A
Orbit
MEO
Country
Flag of CISCIS
Related business
Manufacturer
Resehetnev ISS
Mission
Operational Defense Navigation
Bus & Motor
EKSPRESS-1000, AOCS
Mass
974 kg wet, ~800 kg dry
Launch date (UTC)
2014-11-30 (11 years ago)
Launch vehicle
SOYUZ-2-1B
Launch site
Plesetsk Missile And Space Complex (PKMTR)
Object type
Payload
Rocket body
Debris
Shape & HBR
Box + 2 Pan, 2.5 m
Radar Cross Section
3.585 m², Large (>1 m²)

Expand to show TLE details & history
Last TLE update: 2 days ago

TLE from 2 days ago
0 COSMOS 2501 (GLONASS)
1 40315U 14075A   26126.06741133  .00000031  00000-0  00000-0 0  9996
2 40315  63.6141 191.8298 0022033 210.3809 149.5689  2.13101484 88953
Epoch: 2026-05-06T01:37Z
TLE epoch observation values (Epoch: 2026-05-06T01:37:04.338Z)
Latitude
0.00006°
Longitude
-56.37024°
Altitude
19,178.952 km
Speed
3.946 km/s
True Right ascension
12h 47m 19s
True Declination
0° 00' 00"
Sunlit
Object was in daylight at epoch
Visualization orbit readout
Latitude
Unknown
Longitude
Unknown
Altitude
Unknown
Speed
Unknown
Apparent Right ascension
Unknown
Apparent Declination
Unknown
Sunlit
N/A
Visualization observer readout
Local Sidereal Time
20:35:34
Azimuth
Unknown
Elevation
Unknown
Doppler factor
Unknown
Orbital elements
Apogee altitude
19,185.794 km
Perigee altitude
19,073.391 km
Semi-major axis
25,507.729 km
Eccentricity
0.0022
Inclination
63.6141°
RAAN
191.8298°
Arg. of periapsis
210.3809°
True anomaly
149.69648°
Mean anomaly
149.5689°
Eccentric anomaly
149.63272°
Mean motion
0.53276 °/min
Orbital period
675.72 mins
BSTAR
0
Loading maneuver chart data...
Computing Atmospheric mass density...
Loading historical data...
Loading historical data...
Loading historical data...
Loading historical data...
Loading historical data...
Loading historical data...
Loading historical data...
Other satellites on launch #75 in the year 2014 (2014-11-30 UTC)

Documentation

Showing up to 5 results
|